{"data":{"norad_id":52347,"epoch":"2026-05-25T03:50:55.929120Z","epoch_age_seconds":71855,"freshness":"FRESH","line1":"1 52347U 22045S   26145.16036955 -.00000192  00000+0  60425-5 0  9991","line2":"2 52347  53.2133 215.8395 0001237 100.5520 259.5611 15.08832798227325","mean_motion":15.08832798,"eccentricity":0.0001237,"inclination_deg":53.2133,"raan_deg":215.8395,"arg_perigee_deg":100.552,"mean_anomaly_deg":259.5611,"bstar":6.0425e-6,"rev_number":22732,"period_min":95.438010222787,"perigee_km":538.90965815725,"apogee_km":540.62114721167,"semimajor_km":6917.9024026845,"source":"CELESTRAK","updated_at":"2026-05-25T13:38:17.115733Z"}}